| time (UTC) | temp F | wind direction | speed MPH | gust MPH | rain 1hr in | rain 24hr in | rain mn in | humidity % | barometer mb |
| 20260906200016 | 86 | 126 | 7.0 | 15.0 | 0.00 | 0.21 | 0.21 | 58 | 1016.7 |
| 20260906194522 | 86 | 132 | 9.0 | 16.0 | 0.00 | 0.21 | 0.21 | 55 | 1016.8 |
| 20260906193027 | 86 | 157 | 6.0 | 13.0 | 0.00 | 0.21 | 0.21 | 55 | 1017.2 |
| 20260906191528 | 86 | 134 | 7.0 | 12.0 | 0.00 | 0.21 | 0.21 | 58 | 1017.2 |
| 20260906190031 | 85 | 144 | 7.0 | 11.0 | 0.00 | 0.21 | 0.21 | 56 | 1017.5 |
| 20260906184518 | 84 | 58 | 3.0 | 6.0 | 0.00 | 0.21 | 0.21 | 55 | 1017.3 |
| 20260906183020 | 85 | 96 | 5.0 | 9.0 | 0.00 | 0.21 | 0.21 | 56 | 1017.6 |
| 20260906181530 | 84 | 143 | 2.0 | 10.0 | 0.00 | 0.21 | 0.21 | 57 | 1017.8 |
| 20260906180043 | 84 | 144 | 1.0 | 9.0 | 0.00 | 0.21 | 0.21 | 56 | 1018.0 |
| 20260906174547 | 83 | 140 | 4.0 | 9.0 | 0.00 | 0.21 | 0.21 | 58 | 1018.2 |
| 20260906173018 | 83 | 150 | 4.0 | 8.0 | 0.00 | 0.21 | 0.21 | 59 | 1018.3 |
| 20260906171527 | 82 | 234 | 8.0 | 13.0 | 0.00 | 0.21 | 0.21 | 58 | 1018.3 |
| 20260906170028 | 81 | 196 | 8.0 | 16.0 | 0.00 | 0.21 | 0.21 | 60 | 1018.3 |
| 20260906164532 | 81 | 224 | 8.0 | 17.0 | 0.00 | 0.21 | 0.21 | 60 | 1018.1 |
| 20260906163032 | 80 | 211 | 7.0 | 17.0 | 0.00 | 0.21 | 0.21 | 63 | 1018.0 |
| 20260906161525 | 80 | 185 | 11.0 | 19.0 | 0.00 | 0.21 | 0.21 | 60 | 1017.9 |
| 20260906160033 | 79 | 186 | 10.0 | 22.0 | 0.00 | 0.21 | 0.21 | 63 | 1017.9 |
| 20260906154534 | 78 | 178 | 12.0 | 23.0 | 0.00 | 0.21 | 0.21 | 65 | 1017.6 |
| 20260906153030 | 78 | 202 | 9.0 | 23.0 | 0.00 | 0.21 | 0.21 | 66 | 1017.5 |
| 20260906151520 | 77 | 157 | 10.0 | 21.0 | 0.00 | 0.21 | 0.21 | 67 | 1017.3 |
| 20260906150026 | 77 | 169 | 12.0 | 22.0 | 0.00 | 0.21 | 0.21 | 66 | 1017.2 |
| 20260906144508 | 75 | 169 | 11.0 | 23.0 | 0.00 | 0.21 | 0.21 | 69 | 1017.4 |
| 20260906143017 | 75 | 148 | 13.0 | 23.0 | 0.00 | 0.21 | 0.21 | 69 | 1017.5 |
| 20260906141519 | 73 | 148 | 12.0 | 22.0 | 0.00 | 0.21 | 0.21 | 72 | 1017.4 |
| 20260906140026 | 72 | 174 | 11.0 | 20.0 | 0.00 | 0.21 | 0.21 | 73 | 1017.1 |
| 20260906134530 | 72 | 133 | 13.0 | 22.0 | 0.00 | 0.21 | 0.21 | 74 | 1017.0 |
| 20260906133021 | 71 | 149 | 10.0 | 19.0 | 0.00 | 0.21 | 0.21 | 75 | 1017.2 |
| 20260906131518 | 71 | 159 | 9.0 | 21.0 | 0.00 | 0.21 | 0.21 | 74 | 1017.3 |
| 20260906130020 | 70 | 169 | 6.0 | 17.0 | 0.00 | 0.21 | 0.21 | 75 | 1017.3 |
| 20260906124526 | 70 | 143 | 4.0 | 9.0 | 0.00 | 0.21 | 0.21 | 76 | 1017.0 |
| 20260906123012 | 70 | 159 | 4.0 | 10.0 | 0.00 | 0.21 | 0.21 | 78 | 1017.0 |
| 20260906121503 | 70 | 139 | 8.0 | 13.0 | 0.05 | 0.21 | 0.21 | 77 | 1016.7 |
| 20260906120004 | 70 | 198 | 11.0 | 18.0 | 0.09 | 0.21 | 0.21 | 77 | 1016.6 |
| 20260906114503 | 69 | 138 | 10.0 | 18.0 | 0.12 | 0.21 | 0.21 | 82 | 1016.0 |
| 20260906113004 | 69 | 138 | 13.0 | 30.0 | 0.14 | 0.21 | 0.21 | 81 | 1015.6 |
| 20260906111505 | 66 | 120 | 12.0 | 16.0 | 0.12 | 0.16 | 0.16 | 87 | 1017.5 |
| 20260906110005 | 67 | 207 | 4.0 | 12.0 | 0.09 | 0.12 | 0.12 | 87 | 1019.1 |
| 20260906104503 | 66 | 245 | 7.0 | 11.0 | 0.07 | 0.09 | 0.09 | 88 | 1018.5 |
| 20260906103003 | 66 | 277 | 8.0 | 14.0 | 0.05 | 0.07 | 0.07 | 88 | 1018.7 |
| 20260906101514 | 66 | 266 | 11.0 | 19.0 | 0.02 | 0.04 | 0.04 | 88 | 1018.3 |
| 20260906100007 | 66 | 262 | 10.0 | 17.0 | 0.03 | 0.03 | 0.03 | 87 | 1018.3 |
| 20260906094509 | 67 | 248 | 11.0 | 17.0 | 0.02 | 0.02 | 0.02 | 87 | 1018.0 |
| 20260906093004 | 67 | 271 | 8.0 | 14.0 | 0.02 | 0.02 | 0.02 | 88 | 1017.8 |
| 20260906091503 | 67 | 257 | 9.0 | 16.0 | 0.02 | 0.02 | 0.02 | 86 | 1018.0 |
| 20260906090020 | 70 | 257 | 11.0 | 21.0 | 0.00 | 0.00 | 0.00 | 80 | 1018.6 |
| 20260906084507 | 73 | 265 | 5.0 | 9.0 | 0.00 | 0.00 | 0.00 | 91 | 1018.2 |
| 20260906083007 | 73 | 133 | 0.0 | 1.0 | 0.00 | 0.00 | 0.00 | 90 | 1017.0 |
| 20260906081508 | 73 | 133 | 0.0 | 3.0 | 0.00 | 0.00 | 0.00 | 90 | 1016.7 |
| 20260906080008 | 74 | 11 | 1.0 | 2.0 | 0.00 | 0.00 | 0.00 | 88 | 1017.0 |
| 20260906074512 | 74 | 331 | 2.0 | 5.0 | 0.00 | 0.00 | 0.00 | 87 | 1017.3 |
| 20260906073013 | 75 | 248 | 2.0 | 7.0 | 0.00 | 0.00 | 0.00 | 86 | 1017.0 |
| 20260906071512 | 76 | 208 | 3.0 | 7.0 | 0.00 | 0.00 | 0.00 | 82 | 1016.7 |
| 20260906070012 | 77 | 186 | 5.0 | 10.0 | 0.00 | 0.00 | 0.00 | 80 | 1016.4 |
| 20260906064511 | 77 | 173 | 4.0 | 8.0 | 0.00 | 0.00 | 0.00 | 80 | 1016.3 |
| 20260906063028 | 77 | 146 | 6.0 | 12.0 | 0.00 | 0.00 | 0.00 | 81 | 1016.0 |
| 20260906061517 | 77 | 131 | 7.0 | 12.0 | 0.00 | 0.00 | 0.00 | 81 | 1016.2 |
| 20260906060016 | 77 | 115 | 8.0 | 11.0 | 0.00 | 0.00 | 0.00 | 83 | 1016.3 |
| 20260906054519 | 77 | 117 | 5.0 | 10.0 | 0.00 | 0.00 | 0.00 | 83 | 1016.2 |
| 20260906053017 | 76 | 128 | 7.0 | 10.0 | 0.00 | 0.00 | 0.00 | 85 | 1016.0 |
| 20260906051534 | 76 | 92 | 5.0 | 8.0 | 0.00 | 0.00 | 0.00 | 86 | 1016.2 |
| 20260906050023 | 76 | 116 | 0.0 | 6.0 | 0.00 | 0.00 | 0.00 | 85 | 1016.5 |
| 20260906044519 | 76 | 76 | 2.0 | 7.0 | 0.00 | 0.00 | 0.00 | 86 | 1016.7 |
| 20260906043023 | 76 | 69 | 2.0 | 4.0 | 0.00 | 0.00 | 0.00 | 87 | 1016.8 |
| 20260906041520 | 74 | 108 | 0.0 | 0.0 | 0.00 | 0.00 | 0.00 | 87 | 1016.6 |
| 20260906040032 | 75 | 108 | 0.0 | 0.0 | 0.00 | 0.00 | 0.00 | 86 | 1016.5 |
| 20260906034532 | 76 | 108 | 0.0 | 0.0 | 0.00 | 0.00 | 0.00 | 85 | 1016.5 |
| 20260906033023 | 76 | 108 | 0.0 | 0.0 | 0.00 | 0.00 | 0.00 | 85 | 1016.6 |
| 20260906031536 | 76 | 108 | 0.0 | 1.0 | 0.00 | 0.00 | 0.00 | 86 | 1016.4 |
| 20260906030020 | 75 | 108 | 0.0 | 0.0 | 0.00 | 0.00 | 0.00 | 85 | 1016.4 |
| 20260906024526 | 76 | 108 | 0.0 | 0.0 | 0.00 | 0.00 | 0.00 | 84 | 1016.0 |
| 20260906023027 | 77 | 108 | 0.0 | 2.0 | 0.00 | 0.00 | 0.00 | 81 | 1016.1 |
| 20260906021514 | 78 | 108 | 1.0 | 3.0 | 0.00 | 0.00 | 0.00 | 80 | 1016.1 |
| 20260906020022 | 78 | 134 | 1.0 | 4.0 | 0.00 | 0.00 | 0.00 | 80 | 1015.7 |
| 20260906014526 | 78 | 126 | 2.0 | 3.0 | 0.00 | 0.00 | 0.00 | 78 | 1015.6 |
| 20260906013005 | 79 | 130 | 2.0 | 7.0 | 0.00 | 0.00 | 0.00 | 76 | 1015.4 |
| 20260906011510 | 80 | 124 | 3.0 | 6.0 | 0.00 | 0.00 | 0.00 | 75 | 1015.1 |
| 20260906010014 | 80 | 141 | 3.0 | 7.0 | 0.00 | 0.00 | 0.00 | 73 | 1015.1 |
| 20260906004518 | 81 | 146 | 6.0 | 10.0 | 0.00 | 0.00 | 0.00 | 71 | 1015.0 |
| 20260906003020 | 83 | 140 | 6.0 | 11.0 | 0.00 | 0.00 | 0.00 | 69 | 1015.0 |
| 20260906001506 | 85 | 152 | 7.0 | 12.0 | 0.00 | 0.00 | 0.00 | 68 | 1015.3 |
| 20260906000011 | 86 | 141 | 9.0 | 14.0 | 0.00 | 0.00 | 0.00 | 65 | 1015.5 |
| 20260905234518 | 87 | 157 | 8.0 | 16.0 | 0.00 | 0.00 | 0.00 | 63 | 1015.6 |
| 20260905233023 | 87 | 132 | 8.0 | 14.0 | 0.00 | 0.00 | 0.00 | 62 | 1015.9 |
| 20260905231527 | 88 | 132 | 7.0 | 11.0 | 0.00 | 0.00 | 0.00 | 63 | 1015.7 |
| 20260905230008 | 88 | 135 | 7.0 | 13.0 | 0.00 | 0.00 | 0.00 | 62 | 1015.7 |
| 20260905224514 | 88 | 188 | 9.0 | 15.0 | 0.00 | 0.00 | 0.00 | 63 | 1015.9 |
| 20260905223020 | 88 | 129 | 10.0 | 17.0 | 0.00 | 0.00 | 0.00 | 63 | 1015.7 |
| 20260905221527 | 88 | 126 | 10.0 | 18.0 | 0.00 | 0.00 | 0.00 | 64 | 1015.7 |
| 20260905220030 | 89 | 148 | 10.0 | 19.0 | 0.00 | 0.00 | 0.00 | 63 | 1015.7 |
| 20260905214516 | 89 | 138 | 10.0 | 19.0 | 0.00 | 0.00 | 0.00 | 63 | 1015.8 |
| 20260905213020 | 88 | 152 | 9.0 | 18.0 | 0.00 | 0.00 | 0.00 | 60 | 1016.0 |
| 20260905211523 | 89 | 142 | 10.0 | 22.0 | 0.00 | 0.00 | 0.00 | 62 | 1016.1 |
| 20260905210042 | 89 | 177 | 10.0 | 20.0 | 0.00 | 0.00 | 0.00 | 61 | 1016.2 |
| 20260905204534 | 89 | 135 | 13.0 | 23.0 | 0.00 | 0.00 | 0.00 | 59 | 1016.4 |
| 20260905203014 | 88 | 141 | 14.0 | 25.0 | 0.00 | 0.00 | 0.00 | 60 | 1016.3 |
| 20260905201521 | 89 | 134 | 15.0 | 23.0 | 0.00 | 0.00 | 0.00 | 60 | 1016.5 |